When you browse on this site, cookies collect data to enhance your experience and personalize the content and advertising you see.
Visit our Privacy Policy to learn more. By continuing to use the site, you agree to this use of cookies and data.
  • In Austria
  • List of Countries
  • For 7 days
  • Water Temperature
  • Satellite Maps
  • Weather Map
  • News
  • Weather Widgets
  • user-avatar
    Login

    Hourly Weather Rousse

    Today, 17 February, Sunday

    Time Temperature Precipitation Wind Pressure Humidity
    00:00 +3°C° 0 mm 2 mps 757 mmHg 71%
    01:00 +3°C° 0 mm 2 mps 757 mmHg 72%
    02:00 +2°C° 0 mm 2 mps 757 mmHg 72%
    03:00 +2°C° 0 mm 2 mps 757 mmHg 73%
    04:00 +2°C° 0 mm 2 mps 757 mmHg 73%
    05:00 +2°C° 0 mm 2 mps 756 mmHg 73%
    06:00 +2°C° 0 mm 2 mps 756 mmHg 75%
    07:00 +2°C° 0 mm 2 mps 756 mmHg 76%
    08:00 +2°C° 0 mm 2 mps 756 mmHg 77%
    09:00 +3°C° 0 mm 3 mps 756 mmHg 73%
    10:00 +4°C° 0 mm 3 mps 756 mmHg 68%
    11:00 +7°C° 0 mm 3 mps 756 mmHg 64%
    12:00 +8°C° 0 mm 3 mps 756 mmHg 60%
    13:00 +8°C° 0 mm 4 mps 755 mmHg 55%
    14:00 +11°C° 0 mm 4 mps 755 mmHg 51%
    15:00 +11°C° 0 mm 3 mps 755 mmHg 52%
    16:00 +10°C° 0 mm 3 mps 754 mmHg 53%
    17:00 +10°C° 0 mm 2 mps 754 mmHg 55%
    18:00 +9°C° 0 mm 2 mps 754 mmHg 58%
    19:00 +8°C° 0 mm 2 mps 754 mmHg 61%
    20:00 +7°C° 0 mm 2 mps 754 mmHg 64%
    21:00 +7°C° 0 mm 2 mps 754 mmHg 65%
    22:00 +6°C° 0 mm 2 mps 754 mmHg 66%
    23:00 +6°C° 0 mm 2 mps 754 mmHg 68%

    Tomorrow, 18 February, Monday

    Time Temperature Precipitation Wind Pressure Humidity
    00:00 +5°C° 0 mm 2 mps 754 mmHg 69%
    01:00 +5°C° 0 mm 2 mps 754 mmHg 70%
    02:00 +5°C° 0 mm 2 mps 754 mmHg 71%
    03:00 +4°C° 0 mm 2 mps 754 mmHg 73%
    04:00 +4°C° 0 mm 2 mps 754 mmHg 75%
    05:00 +4°C° 0 mm 2 mps 754 mmHg 77%
    06:00 +4°C° 0 mm 2 mps 754 mmHg 78%
    07:00 +4°C° 0 mm 2 mps 754 mmHg 79%
    08:00 +5°C° 0 mm 1 mps 755 mmHg 80%
    09:00 +5°C° 0 mm 2 mps 755 mmHg 74%
    10:00 +7°C° 0 mm 2 mps 755 mmHg 68%
    11:00 +9°C° 0 mm 2 mps 755 mmHg 62%
    12:00 +10°C° 0 mm 2 mps 754 mmHg 58%
    13:00 +12°C° 0 mm 2 mps 754 mmHg 54%
    14:00 +13°C° 0 mm 1 mps 754 mmHg 49%
    15:00 +13°C° 0 mm 1 mps 754 mmHg 51%
    16:00 +13°C° 0 mm 1 mps 753 mmHg 52%
    17:00 +12°C° 0 mm 0 mps 753 mmHg 53%
    18:00 +11°C° 0 mm 0 mps 753 mmHg 56%
    19:00 +9°C° 0 mm 0 mps 754 mmHg 59%
    20:00 +8°C° 0 mm 0 mps 754 mmHg 63%
    21:00 +8°C° 0 mm 0 mps 754 mmHg 64%
    22:00 +8°C° 0 mm 0 mps 754 mmHg 65%
    23:00 +7°C° 0 mm 0 mps 754 mmHg 67%

    Day after tomorrow, 19 February, Tuesday

    Time Temperature Precipitation Wind Pressure Humidity
    00:00 +7°C° 0 mm 0 mps 754 mmHg 68%
    01:00 +6°C° 0 mm 0 mps 754 mmHg 69%
    02:00 +6°C° 0 mm 0 mps 754 mmHg 70%
    03:00 +6°C° 0 mm 0 mps 754 mmHg 71%
    04:00 +5°C° 0 mm 0 mps 754 mmHg 72%
    05:00 +5°C° 0 mm 0 mps 754 mmHg 73%
    06:00 +6°C° 0 mm 1 mps 754 mmHg 74%
    07:00 +6°C° 0 mm 1 mps 754 mmHg 74%
    08:00 +6°C° 0 mm 1 mps 754 mmHg 74%
    09:00 +8°C° 0 mm 1 mps 754 mmHg 67%
    10:00 +10°C° 0 mm 1 mps 755 mmHg 61%
    11:00 +11°C° 0 mm 1 mps 755 mmHg 54%
    12:00 +11°C° 0 mm 0 mps 754 mmHg 51%
    13:00 +12°C° 0 mm 0 mps 754 mmHg 47%
    14:00 +13°C° 0 mm 0 mps 753 mmHg 44%
    15:00 +13°C° 0 mm 0 mps 753 mmHg 46%
    16:00 +14°C° 0 mm 1 mps 753 mmHg 47%
    17:00 +14°C° 0 mm 1 mps 753 mmHg 49%
    18:00 +13°C° 0 mm 1 mps 753 mmHg 53%
    19:00 +11°C° 0 mm 1 mps 753 mmHg 56%
    20:00 +10°C° 0 mm 1 mps 753 mmHg 60%
    21:00 +10°C° 0 mm 1 mps 753 mmHg 63%
    22:00 +9°C° 0 mm 1 mps 753 mmHg 65%
    23:00 +8°C° 0 mm 0 mps 753 mmHg 68%

    20 February, Wednesday

    Time Temperature Precipitation Wind Pressure Humidity
    00:00 +8°C° 0 mm 1 mps 753 mmHg 69%
    01:00 +8°C° 0 mm 1 mps 753 mmHg 70%
    02:00 +8°C° 0 mm 1 mps 753 mmHg 71%
    03:00 +7°C° 0 mm 1 mps 752 mmHg 72%
    04:00 +7°C° 0 mm 1 mps 752 mmHg 74%
    05:00 +7°C° 0 mm 1 mps 752 mmHg 75%
    06:00 +7°C° 0 mm 1 mps 752 mmHg 76%
    07:00 +6°C° 0 mm 2 mps 752 mmHg 77%
    08:00 +5°C° 0 mm 2 mps 752 mmHg 78%
    09:00 +7°C° 0 mm 2 mps 752 mmHg 72%
    10:00 +9°C° 0 mm 3 mps 752 mmHg 65%
    11:00 +11°C° 0 mm 4 mps 752 mmHg 59%
    12:00 +12°C° 0 mm 4 mps 752 mmHg 55%
    13:00 +13°C° 0 mm 4 mps 752 mmHg 50%
    14:00 +13°C° 0 mm 5 mps 751 mmHg 46%
    15:00 +13°C° 0 mm 4 mps 751 mmHg 47%
    16:00 +13°C° 0 mm 3 mps 751 mmHg 48%
    17:00 +13°C° 0 mm 3 mps 751 mmHg 50%
    18:00 +13°C° 0 mm 2 mps 752 mmHg 54%
    19:00 +10°C° 0 mm 2 mps 752 mmHg 58%
    20:00 +9°C° 0 mm 2 mps 753 mmHg 62%
    21:00 +8°C° 0 mm 2 mps 753 mmHg 65%
    22:00 +8°C° 0 mm 2 mps 753 mmHg 67%
    23:00 +7°C° 0 mm 2 mps 753 mmHg 70%

    21 February, Thursday

    Time Temperature Precipitation Wind Pressure Humidity
    00:00 +7°C° 0 mm 2 mps 753 mmHg 73%
    01:00 +6°C° 0 mm 2 mps 753 mmHg 76%
    02:00 +6°C° 0 mm 2 mps 753 mmHg 80%
    03:00 +5°C° 0 mm 2 mps 753 mmHg 81%
    04:00 +5°C° 0 mm 2 mps 753 mmHg 83%
    05:00 +5°C° 0 mm 2 mps 753 mmHg 85%
    06:00 +5°C° 0 mm 2 mps 754 mmHg 86%
    07:00 +5°C° 0 mm 2 mps 754 mmHg 86%
    08:00 +5°C° 0 mm 2 mps 754 mmHg 87%
    09:00 +6°C° 0 mm 2 mps 754 mmHg 81%
    10:00 +7°C° 0 mm 3 mps 754 mmHg 74%
    11:00 +9°C° 0 mm 3 mps 755 mmHg 68%
    12:00 +10°C° 0 mm 3 mps 754 mmHg 64%
    13:00 +11°C° 0 mm 3 mps 754 mmHg 60%
    14:00 +13°C° 0 mm 2 mps 754 mmHg 56%
    15:00 +13°C° 0 mm 2 mps 754 mmHg 56%
    16:00 +12°C° 0 mm 2 mps 754 mmHg 56%
    17:00 +12°C° 0 mm 2 mps 753 mmHg 56%
    18:00 +11°C° 0 mm 1 mps 754 mmHg 61%
    19:00 +10°C° 0 mm 1 mps 754 mmHg 65%
    20:00 +9°C° 0 mm 1 mps 754 mmHg 69%
    21:00 +9°C° 0 mm 1 mps 754 mmHg 69%
    22:00 +8°C° 0 mm 1 mps 754 mmHg 70%
    23:00 +7°C° 0 mm 2 mps 754 mmHg 71%

    22 February, Friday

    Time Temperature Precipitation Wind Pressure Humidity
    00:00 +7°C° 0 mm 2 mps 754 mmHg 72%
    01:00 +6°C° 0 mm 2 mps 753 mmHg 73%
    02:00 +5°C° 0 mm 3 mps 753 mmHg 74%
    03:00 +5°C° 0 mm 3 mps 753 mmHg 75%
    04:00 +5°C° 0 mm 3 mps 752 mmHg 77%
    05:00 +4°C° 0 mm 3 mps 752 mmHg 78%
    06:00 +5°C° 0 mm 4 mps 752 mmHg 77%
    07:00 +5°C° 0 mm 4 mps 751 mmHg 76%
    08:00 +5°C° 0 mm 5 mps 751 mmHg 74%
    09:00 +6°C° 0.1 mm 5 mps 751 mmHg 74%
    10:00 +6°C° 0.1 mm 5 mps 750 mmHg 74%
    11:00 +7°C° 0.1 mm 6 mps 750 mmHg 74%
    12:00 +8°C° 0.1 mm 6 mps 749 mmHg 71%
    13:00 +9°C° 0.1 mm 5 mps 749 mmHg 67%
    14:00 +10°C° 0.1 mm 5 mps 748 mmHg 64%
    15:00 +10°C° 0.3 mm 5 mps 748 mmHg 62%
    16:00 +10°C° 0.3 mm 5 mps 748 mmHg 60%
    17:00 +10°C° 0.3 mm 5 mps 747 mmHg 58%
    18:00 +10°C° 0.7 mm 4 mps 747 mmHg 64%
    19:00 +9°C° 0.7 mm 3 mps 748 mmHg 71%
    20:00 +9°C° 0.7 mm 1 mps 748 mmHg 78%
    21:00 +9°C° 0.4 mm 1 mps 748 mmHg 80%
    22:00 +9°C° 0.4 mm 1 mps 748 mmHg 82%
    23:00 +8°C° 0.4 mm 1 mps 748 mmHg 84%
    Show more